Regional Weather Roundup
Issued by NWS Nashville, TN

Home | Current Version | Previous Version | Text Only | Print | Product List | Glossary On
Versions: 1 2 3 4 5 6 7 8 9 10 11 12 13 14 15 16 17 18 19 20 21 22 23 24 25 26 27 28
000
ASUS44 KOHX 271710
RWROHX
MIDDLE TENNESSEE HOURLY WEATHER ROUNDUP
NATIONAL WEATHER SERVICE NASHVILLE TN
1200 PM CDT WED JUL 27 2016

NOTE: "FAIR" INDICATES FEW OR NO CLOUDS BELOW 12,000 FEET WITH
NO SIGNIFICANT WEATHER AND/OR OBSTRUCTIONS TO VISIBILITY.

* THESE REPORTS ARE NOT UNDER NWS QUALITY CONTROL AND MAY NOT
  REPORT WEATHER SUCH AS PRECIPITATION AND FOG.


TNZ005>011-023>034-057-059-062>066-078-080-271800
...NORTHERN MIDDLE TENNESSEE...

CITY           SKY/WX    TMP DP  RH WIND       PRES   REMARKS
CLARKSVILLE    SUNNY     88  75  65 SW5       30.00S HX  97
CROSSVILLE     PTSUNNY   84  71  65 CALM      30.10F
NASHVILLE      MOSUNNY   90  73  57 SW3       30.02S HX  98
SMYRNA         MOSUNNY   92  74  55 S7        30.02S HX 101
SPARTA         MOSUNNY   91  75  59 VRB5      30.03F HX 102
$$
TNZ056-058-060-061-075>077-079-093>097-271800
...SOUTHERN MIDDLE TENNESSEE...

CITY           SKY/WX    TMP DP  RH WIND       PRES   REMARKS
COLUMBIA       MOSUNNY   90  75  62 S8        30.02F HX 100
FAYETTEVILLE   CLOUDY    84  73  70 SE8       30.06S HX  91
MCMINNVILLE    MOSUNNY   90  75  62 CALM      30.04F HX 100
SHELBYVILLE    PTSUNNY   88  77  70 SW9       30.05S HX 100
TULLAHOMA      PTSUNNY   84  72  65 S9        30.07S
WINCHESTER     PTSUNNY   88  72  58 S6        30.06S HX  94
$$


...KEY TO REMARKS...
VSB - VISIBILITY IN MILES
WCI - WIND CHILL INDEX
HX  - HEAT INDEX





USA.gov is the U.S. government's official web portal to all federal, state and local government web resources and services.